« Back
NWS Peachtree City, Ga » Text Product » GA Regional Weather Roundup


Printer-friendly Version
Current Version              Previous Versions:   1  2  3  4  5  6  7  8  9  

Regional Weather Roundup

403
ASUS42 KFFC 180503
RWRGA
WEATHER ROUNDUP FOR GEORGIA
NATIONAL WEATHER SERVICE PEACHTREE CITY GA
100 AM EDT FRI APR 18 2014

NOTE: "FAIR" INDICATES FEW OR NO CLOUDS BELOW 12,000 FEET WITH NO
SIGNIFICANT WEATHER AND/OR OBSTRUCTIONS TO VISIBILITY.

* = USE WITH CAUTION. THE STATIONS MARKED WITH AN ASTERISK MAY NOT
REPORT WEATHER SUCH AS PRECIPITATION, FOG, OR THUNDER AND ARE NOT
QUALITY CONTROLLED BY NWS.

THE REMARK "TC" DENOTES TEMPERATURE READING IN DEGREES CELSIUS.

GAZ001>058-180600-
NORTH GEORGIA

CITY           SKY/WX    TMP DP  RH WIND       PRES   REMARKS
ATLANTA        CLOUDY    58  38  47 E10       30.31S
ATHENS         CLOUDY    56  35  45 E8        30.35R
CHAMBLEE       CLOUDY    57  34  41 VRB6      30.32S
PEACHTREE CITY CLOUDY    58  39  49 E7        30.32R
ROME           CLOUDY    59  39  47 SE5       30.31R
WEST ATLANTA   CLOUDY    60  36  40 E5        30.31S
GAINESVILLE    CLOUDY    55  33  43 E9        30.36S
CARTERSVILLE   CLOUDY    56  38  50 E3        30.32S


CITY           SKY/WX    TMP DP  RH WIND       PRES   REMARKS
DALTON*        CLOUDY    55  41  58 S3        30.31R
MARIETTA       CLOUDY    63  37  39 SE16      30.33S
$$

GAZ059>098-102>109-180600-
CENTRAL GEORGIA

CITY           SKY/WX    TMP DP  RH WIND       PRES   REMARKS
AUGUSTA-BUSH   MOCLDY    48  43  82 CALM      30.34S
AUGUSTA-DANIEL MOCLDY    59  41  51 NE10      30.34S
COLUMBUS       CLOUDY    60  45  57 E7        30.27R
MACON          CLOUDY    59  45  59 E7        30.30R
ROBINS AFB     CLOUDY    61  46  57 E7        30.30R


CITY           SKY/WX    TMP DP  RH WIND       PRES   REMARKS
LAGRANGE*      CLOUDY    59  48  67 CALM      30.30R
SYLVANIA*      CLOUDY    58  50  73 E7        30.32F
MILLEDGEVILLE* CLOUDY    61  32  33 E5        30.32R
$$

GAZ099>101-110>166-180600-
SOUTH GEORGIA

CITY           SKY/WX    TMP DP  RH WIND       PRES   REMARKS
SAVANNAH       CLOUDY    60  51  72 E9        30.30F
VALDOSTA       CLOUDY    63  54  72 E8        30.23S
ALMA           CLOUDY    58  49  72 E5        30.27F
ST SIMONS      CLOUDY    63  58  83 NE13      30.26S
FT STEWART     CLOUDY    59  53  80 E9        30.27F
ALBANY         CLOUDY    62  46  55 E13       30.25F
HUNTER AFB     CLOUDY    61  54  76 NE9       30.28F
MOODY AFB      CLOUDY    60  55  84 NE9       30.22F
BRUNSWICK      CLOUDY    63  59  88 NE13      30.27F


CITY           SKY/WX    TMP DP  RH WIND       PRES   REMARKS
BAINBRIDGE*    CLOUDY    64  55  72 E14G20    30.21S
MOULTRIE*      CLOUDY    61  54  77 E8        30.23F
VIDALIA*       CLOUDY    57  52  82 E9        30.29F
DOUGLAS*       CLOUDY    59  48  67 E9        30.28S
$$



USA.gov is the U.S. government's official web portal to all federal, state and local government web resources and services.